GW3992 Weather Reports


time (UTC)temp
F
wind
direction
speed
knots
gust
knots
rain 1hr
in
rain 24hr
in
rain mn
in
humidity
%
barometer
mb
20260505225832 55 24 0.0 0.9 0.00 0.00 0.00 87 1021.0
20260505225330 55 43 0.0 0.0 0.00 0.00 0.00 86 1020.9
20260505224825 55 11 0.9 0.9 0.00 0.00 0.00 86 1021.0
20260505224323 55 342 0.9 0.9 0.00 0.00 0.00 86 1021.1
20260505223820 56 240 1.7 1.7 0.00 0.00 0.00 86 1021.2
20260505223317 55 314 0.9 0.9 0.00 0.00 0.00 88 1021.1
20260505222812 55 12 0.0 0.9 0.00 0.00 0.00 89 1021.2
20260505222309 55 32 0.0 0.0 0.00 0.00 0.00 90 1021.2
20260505221806 54 9 0.0 0.0 0.00 0.00 0.00 91 1021.1
20260505221302 54 15 0.0 0.0 0.00 0.00 0.00 91 1021.2
20260505220759 54 18 0.0 0.0 0.00 0.00 0.00 91 1021.2
20260505220257 54 35 0.0 0.0 0.00 0.00 0.00 91 1021.3
20260505215755 54 22 0.0 0.0 0.00 0.00 0.00 90 1021.2
20260505215252 54 30 0.0 0.9 0.00 0.00 0.00 91 1021.2
20260505214750 54 8 0.0 0.0 0.00 0.00 0.00 90 1021.4
20260505214247 55 348 0.0 0.9 0.00 0.00 0.00 90 1021.5
20260505213744 55 357 0.0 0.0 0.00 0.00 0.00 89 1021.5
20260505213242 55 15 0.0 0.9 0.00 0.00 0.00 89 1021.2
20260505212737 55 326 0.9 0.9 0.00 0.00 0.00 89 1021.4
20260505212235 55 300 0.9 0.9 0.00 0.00 0.00 89 1021.4
20260505211732 55 36 0.0 0.0 0.00 0.00 0.00 89 1021.2
20260505211229 55 349 0.9 0.9 0.00 0.00 0.00 90 1021.2
20260505210725 54 307 0.0 0.0 0.00 0.00 0.00 90 1021.2
20260505210222 54 24 0.0 0.0 0.00 0.00 0.00 90 1021.1
20260505205720 54 49 0.0 0.0 0.00 0.00 0.00 90 1021.0
20260505205218 54 26 0.0 0.0 0.00 0.00 0.00 90 1021.3
20260505204714 54 36 0.0 0.0 0.00 0.00 0.00 90 1021.1
20260505204212 54 351 0.0 0.0 0.00 0.00 0.00 89 1021.3
20260505203709 54 45 0.0 0.0 0.00 0.00 0.00 89 1021.3
20260505203206 55 41 0.0 0.0 0.00 0.00 0.00 89 1021.2
20260505202701 55 36 0.0 0.0 0.00 0.00 0.00 89 1021.2
20260505202158 55 26 0.0 0.0 0.00 0.00 0.00 89 1021.1
20260505201654 54 71 0.0 0.0 0.00 0.00 0.00 90 1021.1
20260505201152 54 40 0.0 0.0 0.00 0.00 0.00 90 1021.0
20260505200650 54 40 0.0 0.0 0.00 0.00 0.00 90 1020.9
20260505200147 53 62 0.0 0.0 0.00 0.00 0.00 90 1021.1
20260505195642 54 42 0.0 0.0 0.00 0.00 0.00 89 1021.0
20260505195140 54 30 0.0 0.0 0.00 0.00 0.00 89 1021.1
20260505194637 54 26 0.0 0.0 0.00 0.00 0.00 89 1021.2
20260505194133 54 47 0.0 0.0 0.00 0.00 0.00 89 1021.1
20260505193630 55 44 0.0 0.0 0.00 0.00 0.00 88 1021.2
20260505193127 55 36 0.0 0.0 0.00 0.00 0.00 88 1021.2
20260505192626 55 274 1.7 1.7 0.00 0.00 0.00 88 1021.2
20260505192123 55 65 0.0 0.0 0.00 0.00 0.00 88 1021.2
20260505191621 55 65 0.9 0.9 0.00 0.00 0.00 87 1021.4
20260505191119 55 50 0.0 0.0 0.00 0.00 0.00 87 1021.2
20260505190614 54 51 0.0 0.0 0.00 0.00 0.00 88 1021.2
20260505190109 54 41 0.0 0.0 0.00 0.00 0.00 88 1021.3
20260505185601 54 48 0.0 0.0 0.00 0.00 0.00 88 1021.0
20260505185057 54 28 0.0 0.0 0.00 0.00 0.00 88 1020.9
20260505184553 54 30 0.0 0.0 0.00 0.00 0.00 88 1021.0
20260505184050 54 29 0.0 0.0 0.00 0.00 0.00 88 1020.6
20260505183542 54 40 0.0 0.0 0.00 0.00 0.00 87 1020.7
20260505183040 54 40 0.0 0.9 0.00 0.00 0.00 87 1020.8
20260505182535 54 16 0.0 0.0 0.00 0.00 0.00 88 1020.6
20260505182031 54 28 0.0 0.0 0.00 0.00 0.00 89 1020.5
20260505181528 54 37 0.0 0.0 0.00 0.00 0.00 89 1020.4
20260505181026 54 51 0.0 0.0 0.00 0.00 0.00 90 1020.4
20260505180521 53 32 0.0 0.0 0.00 0.00 0.00 90 1020.4
20260505180021 54 35 0.0 0.0 0.00 0.00 0.00 89 1020.3
20260505175515 54 34 0.0 0.0 0.00 0.00 0.00 89 1020.3
20260505175012 54 32 0.0 0.0 0.00 0.00 0.00 88 1020.3
20260505174509 54 309 0.0 0.0 0.00 0.00 0.00 88 1020.2
20260505174005 54 44 0.0 0.0 0.00 0.00 0.00 88 1020.2
20260505173502 54 37 0.0 0.0 0.00 0.00 0.00 88 1019.9
20260505172958 54 44 0.0 0.0 0.00 0.00 0.00 88 1020.1
20260505172457 54 27 0.0 0.0 0.00 0.00 0.00 88 1019.8
20260505171957 54 41 0.0 0.0 0.00 0.00 0.00 87 1020.0
20260505171453 54 56 0.0 0.0 0.00 0.00 0.00 86 1019.8
20260505170950 55 50 0.0 0.0 0.00 0.00 0.00 86 1019.7
20260505170446 55 51 0.0 0.0 0.00 0.00 0.00 86 1019.8
20260505165941 54 70 0.0 0.0 0.00 0.00 0.00 87 1019.6
20260505165438 54 34 0.0 0.0 0.00 0.00 0.00 87 1019.6
20260505164933 54 34 0.0 0.0 0.00 0.00 0.00 88 1019.3
20260505164425 53 348 0.0 0.0 0.00 0.00 0.00 89 1019.3
20260505163922 54 25 0.0 0.0 0.00 0.00 0.00 89 1019.0
20260505163421 54 2 0.0 0.0 0.00 0.00 0.00 88 1019.3
20260505162920 55 278 1.7 1.7 0.00 0.00 0.00 88 1019.2
20260505162415 55 195 1.7 1.7 0.00 0.00 0.00 87 1019.1
20260505161912 55 247 1.7 1.7 0.00 0.00 0.00 87 1019.0
20260505161409 56 247 1.7 1.7 0.00 0.00 0.00 88 1019.1
20260505160907 56 234 1.7 1.7 0.00 0.00 0.00 88 1019.0
20260505160404 56 268 2.6 2.6 0.00 0.00 0.00 88 1018.8
20260505153343 56 265 2.6 2.6 0.00 0.00 0.00 84 1018.9
20260505152840 56 227 1.7 1.7 0.00 0.00 0.00 84 1018.7
20260505152337 56 252 0.9 1.7 0.00 0.00 0.00 83 1018.8
20260505151831 56 216 1.7 1.7 0.00 0.00 0.00 83 1018.6
20260505151328 56 233 1.7 1.7 0.00 0.00 0.00 84 1018.8
20260505150825 56 231 1.7 1.7 0.00 0.00 0.00 82 1018.7
20260505150322 56 251 1.7 1.7 0.00 0.00 0.00 81 1018.7
20260505140246 57 310 2.6 3.5 0.00 0.00 0.00 78 1017.9
20260505130210 57 244 2.6 2.6 0.00 0.00 0.00 76 1017.8
20260505124700 58 240 3.5 3.5 0.00 0.00 0.00 73 1017.9
20260505124157 59 266 3.5 5.2 0.00 0.00 0.00 74 1017.8
20260505123653 59 124 2.6 2.6 0.00 0.00 0.00 72 1018.1
20260505123150 59 251 0.9 1.7 0.00 0.00 0.00 73 1018.0
20260505122646 59 5 0.9 1.7 0.00 0.00 0.00 73 1018.3
20260505122143 59 213 0.9 0.9 0.00 0.00 0.00 74 1018.1
20260505121635 59 199 3.5 5.2 0.00 0.00 0.00 73 1017.9
20260505121131 59 245 2.6 2.6 0.00 0.00 0.00 73 1017.9
20260505120627 59 233 2.6 3.5 0.00 0.00 0.00 74 1017.9
20260505120123 59 281 0.9 1.7 0.00 0.00 0.00 72 1017.8
20260505115618 58 357 0.9 1.7 0.00 0.00 0.00 71 1017.8
20260505115116 58 317 0.9 1.7 0.00 0.00 0.00 77 1017.9
20260505114612 58 241 0.9 1.7 0.00 0.00 0.00 78 1017.8
20260505114108 57 254 1.7 1.7 0.00 0.00 0.00 80 1018.1
20260505113605 57 167 2.6 3.5 0.00 0.00 0.00 80 1018.2
20260505113102 56 273 2.6 3.5 0.00 0.00 0.00 80 1018.2
20260505112558 57 219 3.5 3.5 0.00 0.00 0.00 82 1018.2
20260505112056 57 234 0.9 0.9 0.00 0.00 0.00 82 1018.4
20260505111550 58 265 3.5 5.2 0.00 0.00 0.00 78 1018.3
20260505111046 59 212 1.7 2.6 0.00 0.00 0.00 73 1018.6
20260505110543 60 179 0.9 1.7 0.00 0.00 0.00 72 1018.3
20260505102015 57 93 0.0 0.0 0.00 0.00 0.00 85 1018.5
20260505101514 57 132 0.0 0.0 0.00 0.00 0.00 82 1018.3
20260505101010 57 219 0.9 1.7 0.00 0.00 0.00 84 1018.4
20260505100507 57 128 0.0 0.0 0.00 0.00 0.00 84 1018.6
20260505100004 57 136 0.0 0.0 0.00 0.00 0.00 84 1018.6
20260505095500 57 214 0.0 0.0 0.00 0.00 0.00 83 1018.7
20260505094956 57 237 1.7 1.7 0.00 0.00 0.00 83 1018.8
20260505094453 57 262 0.9 0.9 0.00 0.00 0.00 82 1018.7
20260505093949 57 242 0.0 0.9 0.00 0.00 0.00 82 1018.8
20260505093446 57 138 0.0 0.0 0.00 0.00 0.00 81 1018.3
20260505092943 57 222 0.0 0.0 0.00 0.00 0.00 81 1018.7
20260505092441 57 203 0.0 0.0 0.00 0.00 0.00 79 1018.8
20260505091938 57 149 0.0 0.0 0.00 0.00 0.00 81 1018.6
20260505091436 57 257 0.0 0.0 0.00 0.00 0.00 82 1018.7
20260505090933 57 245 1.7 1.7 0.00 0.00 0.00 81 1018.7
20260505090432 57 164 1.7 1.7 0.00 0.00 0.00 81 1018.7
20260505085928 57 303 0.0 0.0 0.00 0.00 0.00 85 1018.7
20260505085426 56 55 0.0 0.0 0.00 0.00 0.00 86 1018.7
20260505084925 56 50 0.0 0.0 0.00 0.00 0.00 86 1018.7
20260505084422 56 50 0.0 0.0 0.00 0.00 0.00 84 1018.6
20260505083920 56 52 0.0 0.0 0.00 0.00 0.00 83 1018.6
20260505083417 56 94 0.0 0.0 0.00 0.00 0.00 83 1018.6
20260505082913 55 94 0.0 0.0 0.00 0.00 0.00 83 1018.6
20260505082409 56 42 0.0 0.0 0.00 0.00 0.00 82 1018.5
20260505081906 56 234 2.6 2.6 0.00 0.00 0.00 81 1018.6
20260505081403 56 319 0.9 0.9 0.00 0.00 0.00 81 1018.6
20260505080900 56 290 0.0 0.0 0.00 0.00 0.00 81 1018.5
20260505080355 57 197 0.9 0.9 0.00 0.00 0.00 82 1018.5
20260505075851 57 108 0.0 0.0 0.00 0.00 0.00 83 1018.5
20260505075348 57 54 0.0 0.0 0.00 0.00 0.00 84 1018.6
20260505074846 57 35 0.0 0.0 0.00 0.00 0.00 84 1018.7
20260505074343 58 49 0.0 0.0 0.00 0.00 0.00 83 1018.3
20260505073840 57 61 0.0 0.0 0.00 0.00 0.00 85 1018.3
20260505073338 57 28 0.0 0.0 0.00 0.00 0.00 84 1018.3
20260505072834 56 76 0.0 0.0 0.00 0.00 0.00 87 1018.3
20260505072331 55 54 0.0 0.0 0.00 0.00 0.00 88 1018.3
20260505071827 54 54 0.0 0.0 0.00 0.00 0.00 88 1018.3
20260505071323 54 53 0.0 0.0 0.00 0.00 0.00 88 1018.4
20260505070822 55 57 0.0 0.0 0.00 0.00 0.00 88 1018.3
20260505070318 55 140 0.0 0.0 0.00 0.00 0.00 88 1018.2
20260505065813 54 52 0.0 0.0 0.00 0.00 0.00 88 1018.1
20260505065310 54 63 0.0 0.0 0.00 0.00 0.00 89 1018.0
20260505064807 53 61 0.0 0.0 0.00 0.00 0.00 90 1018.1
20260505064304 53 79 0.0 0.0 0.00 0.00 0.00 91 1017.9
20260505063802 52 44 0.0 0.0 0.00 0.00 0.00 92 1017.9
20260505063258 52 54 0.0 0.0 0.00 0.00 0.00 93 1017.8
20260505062755 51 6 0.0 0.0 0.00 0.00 0.00 93 1017.7
20260505062252 51 43 0.0 0.0 0.00 0.00 0.00 93 1017.6
20260505061749 51 42 0.0 0.0 0.00 0.00 0.00 93 1017.6
20260505061247 51 43 0.0 0.0 0.00 0.00 0.00 93 1017.4
20260505060744 51 36 0.0 0.0 0.00 0.00 0.00 92 1017.5
20260505060241 51 44 0.0 0.0 0.00 0.00 0.00 92 1017.5
20260505055736 51 44 0.0 0.0 0.00 0.00 0.00 91 1017.3
20260505055232 51 24 0.0 0.0 0.00 0.00 0.00 90 1017.4
20260505054730 52 283 0.9 1.7 0.00 0.00 0.00 89 1017.3
20260505054227 53 105 0.0 0.0 0.00 0.00 0.00 88 1017.3
20260505053726 54 58 0.0 0.0 0.00 0.00 0.00 86 1017.2
20260505053221 54 56 0.0 0.0 0.00 0.00 0.00 85 1017.3
20260505052719 54 47 0.0 0.0 0.00 0.00 0.00 84 1017.5
20260505052215 55 260 1.7 1.7 0.00 0.00 0.00 83 1017.3
20260505051713 54 14 0.9 0.9 0.00 0.00 0.00 83 1017.2
20260505051211 53 263 0.9 0.9 0.00 0.00 0.00 84 1017.0
20260505050709 53 286 0.0 0.0 0.00 0.00 0.00 86 1016.8
20260505050207 53 267 0.0 0.0 0.00 0.00 0.00 87 1017.1
20260505041637 52 39 0.0 0.0 0.00 0.00 0.00 85 1016.7
20260505041134 52 7 0.0 0.0 0.00 0.00 0.00 84 1016.6
20260505040630 52 41 0.0 0.0 0.00 0.00 0.00 84 1016.5
20260505040128 52 44 0.0 0.0 0.00 0.00 0.00 85 1016.5
20260505035624 52 44 0.0 0.0 0.00 0.00 0.00 86 1016.6
20260505035120 53 8 0.0 0.0 0.00 0.00 0.00 88 1016.7
20260505034617 53 26 0.0 0.0 0.00 0.00 0.00 89 1016.4
20260505034114 53 316 0.0 0.0 0.00 0.00 0.00 90 1016.7
20260505033610 52 33 0.0 0.0 0.00 0.00 0.00 91 1016.6
20260505033109 52 306 0.0 0.0 0.00 0.00 0.00 92 1016.6
20260505032607 52 41 0.0 0.0 0.00 0.00 0.00 92 1016.7
20260505032103 51 35 0.0 0.0 0.00 0.00 0.00 92 1016.7
20260505031601 51 45 0.0 0.0 0.00 0.00 0.00 92 1016.5
20260505031057 51 57 0.0 0.0 0.00 0.00 0.00 91 1016.5
20260505030554 51 60 0.0 0.0 0.00 0.00 0.00 91 1016.3
20260505030049 52 55 0.0 0.0 0.00 0.00 0.00 90 1016.4
20260505025546 52 36 0.0 0.0 0.00 0.00 0.00 90 1016.5
20260505025045 53 40 0.0 0.0 0.00 0.00 0.00 89 1016.0
20260505024542 53 35 0.0 0.0 0.00 0.00 0.00 90 1016.2
20260505024039 53 53 0.0 0.0 0.00 0.00 0.00 90 1016.2
20260505023536 52 37 0.0 0.0 0.00 0.00 0.00 91 1016.5
20260505023033 52 37 0.0 0.0 0.00 0.00 0.00 91 1016.3
20260505022531 51 37 0.0 0.0 0.00 0.00 0.00 92 1016.5
20260505022028 51 37 0.0 0.0 0.00 0.00 0.00 91 1016.5
20260505021524 51 37 0.0 0.0 0.00 0.00 0.00 91 1016.5
20260505021020 51 37 0.0 0.0 0.00 0.00 0.00 91 1016.4
20260505020514 51 37 0.0 0.0 0.00 0.00 0.00 91 1016.3
20260505020012 51 37 0.0 0.0 0.00 0.00 0.00 91 1016.3
20260505015509 51 37 0.0 0.0 0.00 0.00 0.00 91 1016.4
20260505015005 51 37 0.0 0.0 0.00 0.00 0.00 91 1016.4
20260505014502 51 34 0.0 0.0 0.00 0.00 0.00 91 1016.5
20260505014000 52 42 0.0 0.0 0.00 0.00 0.00 90 1016.4
20260505013457 52 42 0.0 0.0 0.00 0.00 0.00 90 1016.4
20260505012954 52 42 0.0 0.0 0.00 0.00 0.00 90 1016.4
20260505012452 52 42 0.0 0.0 0.00 0.00 0.00 89 1016.4
20260505011948 52 41 0.0 0.0 0.00 0.00 0.00 89 1016.5
20260505011444 52 38 0.0 0.0 0.00 0.00 0.00 89 1016.6
20260505010941 52 33 0.0 0.0 0.00 0.00 0.00 90 1016.7
20260505010437 52 37 0.0 0.0 0.00 0.00 0.00 90 1016.8
20260505005933 52 49 0.0 0.0 0.00 0.00 0.00 91 1016.7
20260505005430 52 39 0.0 0.0 0.00 0.00 0.00 90 1016.7
20260505004928 52 28 0.0 0.0 0.00 0.00 0.00 90 1016.8
20260505004424 52 48 0.0 0.0 0.00 0.00 0.00 90 1016.9
20260505003921 52 47 0.0 0.0 0.00 0.00 0.00 89 1017.1
20260505003419 52 50 0.0 0.0 0.00 0.00 0.00 89 1016.9
20260505002914 52 51 0.0 0.0 0.00 0.00 0.00 88 1016.9
20260505002411 52 51 0.0 0.0 0.00 0.00 0.00 88 1017.0
20260505001910 53 51 0.0 0.0 0.00 0.00 0.00 88 1017.0
20260505001407 53 45 0.0 0.0 0.00 0.00 0.00 87 1017.0
20260505000904 53 49 0.0 0.0 0.00 0.00 0.00 87 1016.9
20260505000401 53 223 0.0 0.0 0.00 0.00 0.00 86 1017.1
20260504235858 53 47 0.0 0.0 0.00 0.00 0.00 86 1016.9
20260504235355 53 81 0.0 0.0 0.00 0.00 0.00 86 1017.0
20260504234851 53 50 0.0 0.0 0.00 0.00 0.00 86 1017.1
20260504234349 53 35 0.0 0.0 0.00 0.00 0.00 87 1017.2
20260504233845 53 43 0.0 0.0 0.00 0.00 0.00 87 1016.9
20260504233341 53 77 0.0 1.7 0.00 0.00 0.00 88 1016.9
20260504232838 53 88 0.0 0.0 0.00 0.00 0.00 89 1016.9
20260504232335 52 51 0.0 0.0 0.00 0.00 0.00 91 1016.8
20260504231832 52 45 0.0 0.0 0.00 0.00 0.00 92 1016.8
20260504231328 52 29 0.0 0.0 0.00 0.00 0.00 92 1016.9
20260504230825 52 32 0.0 0.0 0.00 0.00 0.00 92 1016.8
20260504230323 52 41 0.0 0.0 0.00 0.00 0.00 92 1016.9